FIN7SC LTFM-EFHK

Flight info

Callsign FIN7SC
Flight time N/A
Altitude 40000
Route VADEN DCT BAKLO DCT SOMOV DCT PEMOK DCT ULMIN DCT ELROM DCT TISAD DCT KARIL DCT TOKAJ DCT KEFIR DCT GAVDU DCT VADOL DCT GERVI/N0485F420 M857 SUWGI DCT BERIL DCT RUVAT DCT NEVTO DCT LUTAL DCT ORTAX DCT KEXLE Q11 INTOR
Aircraft A359/H-SDE2E3GHIJ3J4J5LM1ORWXY/LB1D1

Departure

Time 2026-05-07 16:20
Airport İstanbul Airport (LTFM)

Arrival

Time N/A
Airport Helsinki Vantaa Airport (EFHK)
Time Latitude Longitude Altitude Speed Heading
2026-05-07 15:47 41.26783 28.73449 319 ft 0 kts 179°
2026-05-07 16:08 41.26796 28.73449 318 ft 3 kts 188°
2026-05-07 16:08 41.26818 28.73457 317 ft 3 kts 207°
2026-05-07 16:08 41.26838 28.73474 316 ft 3 kts 224°
2026-05-07 16:09 41.26853 28.73497 315 ft 3 kts 238°
2026-05-07 16:09 41.26864 28.73525 315 ft 3 kts 250°
2026-05-07 16:09 41.26870 28.73554 316 ft 3 kts 264°
2026-05-07 16:09 41.26871 28.73564 316 ft 0 kts 269°
2026-05-07 16:12 41.26871 28.73563 319 ft 1 kts 269°
2026-05-07 16:12 41.26870 28.73517 318 ft 10 kts 269°
2026-05-07 16:13 41.26869 28.73380 317 ft 17 kts 269°
2026-05-07 16:13 41.26867 28.73215 316 ft 19 kts 269°
2026-05-07 16:13 41.26860 28.73031 315 ft 17 kts 251°
2026-05-07 16:13 41.26794 28.72991 315 ft 10 kts 179°
2026-05-07 16:14 41.26731 28.72978 316 ft 7 kts 220°
2026-05-07 16:14 41.26722 28.72955 315 ft 0 kts 253°
2026-05-07 16:14 41.26721 28.72951 316 ft 0 kts 258°
2026-05-07 16:17 41.26718 28.72908 315 ft 13 kts 270°
2026-05-07 16:17 41.26715 28.72775 315 ft 15 kts 269°
2026-05-07 16:17 41.26713 28.72631 315 ft 15 kts 269°
2026-05-07 16:18 41.26732 28.72525 314 ft 9 kts 321°
2026-05-07 16:18 41.26772 28.72516 314 ft 0 kts 358°
2026-05-07 16:18 41.26773 28.72515 314 ft 0 kts 356°
2026-05-07 16:19 41.26866 28.72513 314 ft 40 kts 359°
2026-05-07 16:19 41.27396 28.72502 296 ft 110 kts 359°
2026-05-07 16:20 41.28362 28.72482 268 ft 167 kts 359°
2026-05-07 16:20 41.29651 28.72447 498 ft 196 kts
2026-05-07 16:20 41.30906 28.71950 1394 ft 188 kts 320°
2026-05-07 16:20 41.31792 28.70691 2244 ft 189 kts 306°
2026-05-07 16:21 41.32603 28.69243 2662 ft 204 kts 303°
2026-05-07 16:21 41.33428 28.67665 3210 ft 214 kts 302°
2026-05-07 16:21 41.34308 28.65926 3543 ft 237 kts 302°
2026-05-07 16:21 41.35259 28.64054 4134 ft 248 kts 302°
2026-05-07 16:22 41.36245 28.62123 4718 ft 256 kts 303°
2026-05-07 16:22 41.37256 28.60146 4961 ft 258 kts 303°
2026-05-07 16:22 41.38272 28.58159 5001 ft 259 kts 303°
2026-05-07 16:22 41.39278 28.56193 5004 ft 260 kts 303°
2026-05-07 16:23 41.40300 28.54193 5008 ft 260 kts 303°
2026-05-07 16:23 41.41322 28.52191 5262 ft 262 kts 303°
2026-05-07 16:23 41.42351 28.50174 5957 ft 264 kts 303°
2026-05-07 16:23 41.43399 28.48119 6646 ft 276 kts 303°
2026-05-07 16:24 41.44511 28.45935 6979 ft 299 kts 303°
2026-05-07 16:24 41.45721 28.43556 7395 ft 318 kts 303°
2026-05-07 16:24 41.46980 28.41084 8164 ft 325 kts 303°
2026-05-07 16:24 41.48257 28.38573 9026 ft 329 kts 303°
2026-05-07 16:25 41.49551 28.36028 9882 ft 334 kts 303°
2026-05-07 16:25 41.50862 28.33445 10601 ft 340 kts 303°
2026-05-07 16:25 41.52236 28.30736 11024 ft 364 kts 303°
2026-05-07 16:25 41.53694 28.27856 11537 ft 384 kts 303°
2026-05-07 16:26 41.55208 28.24867 12371 ft 392 kts 303°
2026-05-07 16:26 41.56749 28.21820 13283 ft 399 kts 303°
2026-05-07 16:26 41.58295 28.18762 14140 ft 406 kts 303°
2026-05-07 16:26 41.59371 28.16629 14683 ft 410 kts 303°
2026-05-07 16:27 41.61499 28.12408 15781 ft 416 kts 303°
2026-05-07 16:27 41.63131 28.09168 16670 ft 420 kts 303°
2026-05-07 16:27 41.64753 28.05943 17540 ft 424 kts 304°
2026-05-07 16:27 41.66403 28.02660 18455 ft 426 kts 304°
2026-05-07 16:28 41.68058 27.99362 19226 ft 427 kts 304°
2026-05-07 16:28 41.69711 27.96065 20048 ft 427 kts 304°
2026-05-07 16:28 41.71363 27.92768 20859 ft 427 kts 304°
2026-05-07 16:28 41.73019 27.89457 21592 ft 428 kts 304°
2026-05-07 16:29 41.74679 27.86135 22333 ft 429 kts 304°
2026-05-07 16:29 41.76339 27.82810 23116 ft 429 kts 304°
2026-05-07 16:29 41.78001 27.79477 23766 ft 432 kts 304°
2026-05-07 16:29 41.79689 27.76089 24027 ft 442 kts 304°
2026-05-07 16:30 41.80211 27.75040 24056 ft 447 kts 304°
2026-05-07 16:30 41.80527 27.74407 24067 ft 449 kts 304°
2026-05-07 16:30 41.82288 27.70867 24085 ft 464 kts 304°
2026-05-07 16:30 41.84106 27.67206 24087 ft 479 kts 304°
2026-05-07 16:31 41.85938 27.63514 24185 ft 471 kts 304°
2026-05-07 16:31 41.87729 27.59896 24654 ft 460 kts 304°
2026-05-07 16:31 41.89491 27.56334 25368 ft 458 kts 304°
2026-05-07 16:31 41.91250 27.52777 26084 ft 455 kts 304°
2026-05-07 16:32 41.92988 27.49256 26832 ft 451 kts 304°
2026-05-07 16:32 41.94717 27.45751 27598 ft 448 kts 303°
2026-05-07 16:32 41.96428 27.42276 28393 ft 443 kts 303°
2026-05-07 16:32 41.98126 27.38825 29110 ft 441 kts 303°
2026-05-07 16:33 41.99823 27.35370 29567 ft 445 kts 304°
2026-05-07 16:33 42.01536 27.31882 29997 ft 448 kts 304°
2026-05-07 16:33 42.03259 27.28368 30362 ft 452 kts 303°
2026-05-07 16:33 42.04980 27.24855 30539 ft 458 kts 303°
2026-05-07 16:34 42.06830 27.21352 30826 ft 460 kts 309°
2026-05-07 16:34 42.08897 27.18037 31170 ft 463 kts 310°
2026-05-07 16:34 42.11032 27.14774 31568 ft 463 kts 311°
2026-05-07 16:34 42.13180 27.11563 32115 ft 460 kts 311°
2026-05-07 16:35 42.14603 27.09449 32479 ft 458 kts 311°
2026-05-07 16:35 42.16720 27.06306 33310 ft 446 kts 311°
2026-05-07 16:35 42.18771 27.03250 34251 ft 434 kts 310°
2026-05-07 16:35 42.20786 27.00233 34753 ft 431 kts 310°
2026-05-07 16:36 42.22787 26.97220 35065 ft 432 kts 310°
2026-05-07 16:36 42.24794 26.94185 35251 ft 435 kts 310°
2026-05-07 16:36 42.26807 26.91137 35557 ft 434 kts 310°
2026-05-07 16:36 42.28812 26.88097 35875 ft 433 kts 310°
2026-05-07 16:37 42.30816 26.85055 36175 ft 433 kts 310°
2026-05-07 16:37 42.32819 26.82014 36506 ft 432 kts 310°
2026-05-07 16:37 42.34814 26.78983 36823 ft 431 kts 310°
2026-05-07 16:37 42.36814 26.75940 37104 ft 431 kts 310°
2026-05-07 16:38 42.38780 26.72947 37316 ft 432 kts 310°
2026-05-07 16:38 42.40780 26.69898 37512 ft 434 kts 310°
2026-05-07 16:38 42.42781 26.66845 37742 ft 433 kts 310°
2026-05-07 16:38 42.44780 26.63791 38022 ft 432 kts 310°
2026-05-07 16:39 42.46777 26.60738 38293 ft 432 kts 310°
2026-05-07 16:39 42.48772 26.57687 38524 ft 432 kts 310°
2026-05-07 16:39 42.50759 26.54642 38740 ft 431 kts 310°
2026-05-07 16:39 42.52744 26.51597 38919 ft 431 kts 310°
2026-05-07 16:40 42.54737 26.48538 39045 ft 432 kts 309°
2026-05-07 16:40 42.56784 26.45535 39158 ft 434 kts 312°
2026-05-07 16:40 42.58901 26.42608 39302 ft 434 kts 313°
2026-05-07 16:40 42.61042 26.39714 39451 ft 434 kts 313°
2026-05-07 16:41 42.63181 26.36830 39608 ft 434 kts 313°
2026-05-07 16:41 42.65321 26.33924 39720 ft 435 kts 313°
2026-05-07 16:41 42.67424 26.31045 39841 ft 435 kts 313°
2026-05-07 16:41 42.69549 26.28113 39967 ft 435 kts 312°
2026-05-07 16:42 42.71680 26.25157 40031 ft 437 kts 312°
2026-05-07 16:42 42.75948 26.19211 40046 ft 438 kts 312°
2026-05-07 16:43 42.80207 26.13266 40046 ft 438 kts 312°
2026-05-07 16:43 42.84456 26.07326 40042 ft 438 kts 312°
2026-05-07 16:44 42.88702 26.01380 40040 ft 438 kts 312°
2026-05-07 16:44 42.92920 25.95459 40038 ft 438 kts 312°
2026-05-07 16:45 42.97161 25.89492 40029 ft 438 kts 312°
2026-05-07 16:45 43.01408 25.83507 40024 ft 438 kts 312°
2026-05-07 16:46 43.05648 25.77517 40021 ft 440 kts 311°
2026-05-07 16:46 43.09908 25.71486 40021 ft 441 kts 311°
2026-05-07 16:47 43.14145 25.65476 40022 ft 441 kts 311°
2026-05-07 16:47 43.18400 25.59427 40020 ft 441 kts 311°
2026-05-07 16:48 43.22658 25.53361 40029 ft 441 kts 311°
2026-05-07 16:48 43.26912 25.47288 40021 ft 441 kts 311°
2026-05-07 16:49 43.31160 25.41209 40022 ft 441 kts 311°
2026-05-07 16:49 43.35403 25.35125 40018 ft 441 kts 311°
2026-05-07 16:50 43.39613 25.29076 40026 ft 440 kts 311°
2026-05-07 16:50 43.43837 25.22993 40025 ft 440 kts 311°
2026-05-07 16:51 43.48065 25.16891 40024 ft 440 kts 311°
2026-05-07 16:51 43.52283 25.10790 40025 ft 440 kts 311°
2026-05-07 16:52 43.56507 25.04668 40032 ft 440 kts 311°
2026-05-07 16:52 43.60727 24.98538 40027 ft 440 kts 310°
2026-05-07 16:53 43.64950 24.92391 40034 ft 440 kts 310°
2026-05-07 16:53 43.69265 24.86433 40034 ft 443 kts 317°
2026-05-07 16:54 43.74439 24.81694 40035 ft 448 kts 327°
2026-05-07 16:54 43.79914 24.77520 40037 ft 450 kts 328°
2026-05-07 16:55 43.85433 24.73439 40034 ft 449 kts 328°
2026-05-07 16:55 43.90945 24.69341 40034 ft 449 kts 328°
2026-05-07 16:56 43.96406 24.65246 40029 ft 450 kts 328°
2026-05-07 16:56 44.04673 24.59013 40038 ft 450 kts 328°
2026-05-07 16:57 44.10185 24.54846 40037 ft 450 kts 328°
2026-05-07 16:57 44.15635 24.50724 40037 ft 434 kts 328°
2026-05-07 16:58 44.18249 24.48749 40050 ft 421 kts 328°
2026-05-07 16:58 44.20807 24.46811 40045 ft 416 kts 327°
2026-05-07 16:58 44.25881 24.42945 40045 ft 416 kts 327°
2026-05-07 16:59 44.30929 24.39089 40041 ft 417 kts 327°
2026-05-07 16:59 44.36013 24.35206 40039 ft 416 kts 327°
2026-05-07 17:00 44.41210 24.31564 40041 ft 418 kts 332°
2026-05-07 17:00 44.46549 24.28274 40042 ft 420 kts 332°
2026-05-07 17:01 44.51895 24.24961 40036 ft 420 kts 332°
2026-05-07 17:01 44.57197 24.21593 40037 ft 420 kts 331°
2026-05-07 17:02 44.62530 24.18161 40035 ft 420 kts 331°
2026-05-07 17:02 44.67845 24.14728 40034 ft 420 kts 331°
2026-05-07 17:03 44.73130 24.11310 40035 ft 422 kts 331°
2026-05-07 17:03 44.78480 24.07846 40044 ft 422 kts 331°
2026-05-07 17:04 44.83810 24.04389 40039 ft 422 kts 331°
2026-05-07 17:04 44.89147 24.00920 40039 ft 422 kts 331°
2026-05-07 17:05 44.94471 23.97452 40042 ft 422 kts 331°
2026-05-07 17:05 44.99797 23.93976 40048 ft 421 kts 331°
2026-05-07 17:06 45.05095 23.90510 40049 ft 421 kts 331°
2026-05-07 17:06 45.10413 23.87025 40049 ft 421 kts 331°
2026-05-07 17:07 45.15726 23.83535 40049 ft 421 kts 331°
2026-05-07 17:07 45.21046 23.80033 40052 ft 421 kts 331°
2026-05-07 17:08 45.26372 23.76522 40056 ft 422 kts 330°
2026-05-07 17:08 45.31668 23.73022 40061 ft 422 kts 331°
2026-05-07 17:09 45.36992 23.69496 40053 ft 422 kts 330°
2026-05-07 17:09 45.42315 23.65963 40055 ft 422 kts 330°
2026-05-07 17:10 45.47641 23.62420 40054 ft 422 kts 330°
2026-05-07 17:10 45.52967 23.58871 40055 ft 422 kts 330°
2026-05-07 17:11 45.58287 23.55318 40043 ft 422 kts 330°
2026-05-07 17:11 45.63615 23.51751 40042 ft 422 kts 330°
2026-05-07 17:12 45.68942 23.48179 40032 ft 422 kts 330°
2026-05-07 17:12 45.74233 23.44625 40032 ft 422 kts 330°
2026-05-07 17:13 45.79556 23.41045 40029 ft 422 kts 331°
2026-05-07 17:13 45.85107 23.38118 40019 ft 427 kts 337°
2026-05-07 17:14 45.90765 23.35491 40016 ft 428 kts 338°
2026-05-07 17:14 45.96443 23.32915 40015 ft 428 kts 338°
2026-05-07 17:15 46.02119 23.30331 40019 ft 428 kts 338°
2026-05-07 17:15 46.07794 23.27731 40023 ft 428 kts 338°
2026-05-07 17:16 46.13474 23.25118 40017 ft 429 kts 338°
2026-05-07 17:16 46.19157 23.22500 40022 ft 427 kts 338°
2026-05-07 17:17 46.24789 23.19900 40026 ft 424 kts 338°
2026-05-07 17:17 46.30402 23.17300 40031 ft 424 kts 338°
2026-05-07 17:18 46.36025 23.14689 40036 ft 424 kts 338°
2026-05-07 17:18 46.41610 23.12092 40028 ft 424 kts 338°
2026-05-07 17:19 46.47236 23.09472 40032 ft 424 kts 338°
2026-05-07 17:19 46.52863 23.06844 40025 ft 425 kts 338°
2026-05-07 17:20 46.58492 23.04209 40028 ft 425 kts 338°
2026-05-07 17:20 46.64104 23.01580 40028 ft 425 kts 338°
2026-05-07 17:21 46.69744 22.98929 40031 ft 425 kts 338°
2026-05-07 17:21 46.75371 22.96276 40031 ft 425 kts 338°
2026-05-07 17:22 46.80045 22.94070 40034 ft 425 kts 338°
2026-05-07 17:22 46.85690 22.91399 40024 ft 426 kts 337°
2026-05-07 17:23 46.91328 22.88728 40023 ft 426 kts 337°
2026-05-07 17:23 46.96967 22.86049 40020 ft 426 kts 337°
2026-05-07 17:24 47.02602 22.83366 40014 ft 426 kts 338°
2026-05-07 17:24 47.08214 22.80687 40015 ft 426 kts 338°
2026-05-07 17:25 47.13855 22.77989 40014 ft 427 kts 337°
2026-05-07 17:25 47.19507 22.75280 40012 ft 427 kts 337°
2026-05-07 17:26 47.25164 22.72562 40012 ft 428 kts 337°
2026-05-07 17:26 47.30824 22.69838 40010 ft 428 kts 337°
2026-05-07 17:27 47.36489 22.67105 40009 ft 428 kts 337°
2026-05-07 17:27 47.42148 22.64368 40011 ft 428 kts 337°
2026-05-07 17:28 47.47778 22.61640 40021 ft 428 kts 337°
2026-05-07 17:28 47.53452 22.58882 40011 ft 429 kts 337°
2026-05-07 17:29 47.59073 22.55897 40009 ft 428 kts 334°
2026-05-07 17:29 47.64580 22.52699 40007 ft 427 kts 334°
2026-05-07 17:30 47.70127 22.49492 40003 ft 428 kts 334°
2026-05-07 17:30 47.75685 22.46325 40000 ft 428 kts 334°
2026-05-07 17:31 47.81252 22.43137 40000 ft 428 kts 332°
2026-05-07 17:31 47.86658 22.39440 40002 ft 427 kts 329°
2026-05-07 17:32 47.91962 22.35580 40001 ft 427 kts 329°
2026-05-07 17:32 47.97319 22.31749 39994 ft 427 kts 330°
2026-05-07 17:33 48.02696 22.27966 39996 ft 427 kts 330°
2026-05-07 17:33 48.08091 22.24184 40009 ft 428 kts 330°
2026-05-07 17:34 48.13492 22.20390 39998 ft 429 kts 330°
2026-05-07 17:34 48.18901 22.16579 39980 ft 430 kts 330°
2026-05-07 17:35 48.24314 22.12754 39994 ft 430 kts 330°
2026-05-07 17:35 48.29724 22.08922 39977 ft 430 kts 330°
2026-05-07 17:36 48.35145 22.05073 39976 ft 430 kts 330°
2026-05-07 17:36 48.40560 22.01219 39982 ft 430 kts 330°
2026-05-07 17:37 48.45951 21.97373 39976 ft 431 kts 330°
2026-05-07 17:37 48.51364 21.93501 39980 ft 431 kts 330°
2026-05-07 17:38 48.56791 21.89612 39983 ft 432 kts 330°
2026-05-07 17:38 48.62262 21.85839 39976 ft 435 kts 336°
2026-05-07 17:39 48.68177 21.83947 39974 ft 443 kts 354°